Wind_Speed
5 5 5 6 7 7 7 8 8 8 9 9 9 10 11 11 11 12 12 13 14 15 16 15 15 19 21 22 23 22 22 24 24 24 26 27 28 28 27 28 29 30 31 31 34 38 39 38 38 37 35 33 32 32 30 28 27 27 26 25 26 26 26 24 23 22 22 21 21 21 21 21 21 21
7 7 7 7 7 7 8 8 8 8 8 9 9 9 9 10 10 11 11 12 12 14 15 14 16 20 21 23 24 22 23 24 23 24 25 25 26 26 26 26 27 28 31 33 35 37 37 37 38 38 37 36 35 34 33 31 30 29 28 28 27 27 28 27 25 24 23 23 24 24 24 24 23 22
10 10 10 10 10 10 10 10 10 10 10 10 11 11 11 11 12 12 12 12 12 13 15 15 16 18 20 21 22 22 23 23 23 24 24 24 25 26 26 26 25 27 29 30 30 31 32 34 35 36 37 38 37 37 36 34 33 31 30 30 29 29 29 29 28 26 25 25 26 27 27 28 27 25
11 12 12 12 12 13 13 13 12 12 12 13 13 13 14 14 14 15 15 15 14 15 16 16 16 18 19 20 21 22 23 23 23 24 24 23 24 25 26 26 26 28 29 29 29 29 29 30 31 33 35 36 37 38 38 37 36 35 33 32 32 31 31 31 31 29 28 28 28 29 30 30 30 27
12 13 13 13 13 14 14 15 15 15 14 15 15 16 16 17 17 18 18 18 18 17 18 18 18 18 19 19 20 22 22 23 23 24 24 24 24 25 25 26 26 27 28 29 29 30 29 28 28 30 31 34 35 37 38 39 39 38 37 36 35 34 33 33 33 32 32 32 32 32 33 32 31 30
12 13 14 15 15 15 16 16 17 18 17 17 18 18 18 19 20 20 21 21 21 20 20 21 20 20 20 20 20 20 21 21 22 23 24 25 25 26 26 26 27 28 28 27 27 28 29 29 28 29 29 31 32 34 36 37 38 39 38 38 37 36 35 35 35 36 36 36 36 36 35 33 32 32
14 14 15 15 16 16 16 17 18 19 19 20 20 21 21 22 22 22 23 24 24 24 23 23 23 23 23 22 22 22 22 21 22 22 23 25 26 27 27 27 28 29 29 28 27 27 27 27 28 29 29 30 31 31 32 34 35 36 37 37 37 37 37 37 38 39 39 38 37 36 35 34 34 32
17 17 17 18 17 17 17 17 18 19 20 21 21 22 23 24 25 25 25 25 26 26 26 25 26 26 25 25 25 25 25 24 24 24 24 25 25 26 28 28 30 31 30 29 29 28 27 28 29 30 30 30 31 31 31 32 32 33 34 35 35 35 36 36 37 38 37 35 35 36 35 34 33 31
21 21 21 21 21 21 20 20 20 20 20 21 22 23 24 26 27 27 28 28 29 29 28 28 28 28 28 27 27 28 27 27 27 26 26 27 26 26 27 28 30 32 31 30 30 30 30 30 30 30 30 31 31 31 31 32 32 32 33 33 34 34 34 34 34 34 33 31 32 35 36 35 35 33
24 24 25 25 25 25 25 25 24 23 23 22 23 23 24 25 26 27 28 29 30 31 31 31 31 30 30 30 29 29 29 30 29 29 29 29 29 28 28 28 29 31 32 32 32 32 32 31 31 30 31 31 31 31 31 32 32 33 33 33 33 33 33 33 33 34 33 31 31 32 34 36 38 36
25 26 28 28 28 29 28 29 29 28 27 26 26 26 26 27 27 27 27 28 29 30 32 33 33 33 32 32 31 31 31 32 31 32 32 32 31 31 31 30 30 31 31 32 32 33 33 32 32 31 32 32 33 33 33 33 33 33 33 33 33 33 33 33 33 34 34 33 32 32 33 35 36 36
27 29 30 31 31 32 31 31 32 32 31 30 30 30 30 30 30 30 30 30 30 30 31 32 33 34 34 34 34 33 34 34 34 34 35 34 34 33 33 33 32 33 33 33 33 33 34 34 33 31 31 33 34 34 34 34 34 34 34 34 34 34 34 34 33 34 35 35 34 34 33 34 35 36
29 31 33 34 34 35 34 33 34 34 34 33 33 33 33 34 34 34 34 33 33 34 34 34 34 34 35 35 35 35 36 36 36 36 37 37 36 36 36 35 34 35 35 35 35 34 35 36 35 33 32 32 33 35 36 35 35 35 35 35 34 34 34 34 35 35 36 36 37 36 36 36 36 35
32 33 34 36 37 37 37 36 36 36 35 35 35 35 35 36 37 37 37 37 36 37 38 38 37 37 37 36 36 36 37 38 39 39 39 39 39 38 38 37 36 36 37 37 37 36 36 37 37 37 35 34 34 34 35 35 36 36 36 36 35 35 35 35 35 36 36 37 38 39 39 38 38 36
36 36 37 38 39 40 40 39 38 38 37 36 35 35 36 37 38 38 39 39 39 39 40 41 41 41 41 39 37 38 38 39 40 40 40 41 41 40 40 40 39 38 38 39 39 38 37 37 38 39 38 37 37 36 34 34 34 35 36 36 36 36 36 36 36 36 37 37 39 40 42 42 41 40
38 39 40 41 41 41 41 41 40 40 39 38 37 36 37 38 39 39 40 40 40 41 42 43 43 43 43 43 42 41 41 41 41 42 42 42 42 42 42 42 41 39 40 41 42 40 39 38 39 40 39 39 40 40 38 36 34 33 34 35 36 37 38 38 38 37 37 37 38 39 41 43 43 43
41 41 41 40 39 39 39 40 40 40 40 40 40 40 41 41 40 40 40 40 40 41 42 43 43 43 43 44 44 43 43 44 44 44 44 44 44 44 43 43 42 41 41 42 44 43 41 40 41 41 40 40 40 41 41 40 38 35 34 34 35 37 39 39 39 39 38 37 37 38 39 41 42 43
43 41 39 38 37 37 38 39 39 40 40 41 42 43 44 45 44 42 41 42 42 41 41 42 42 42 42 44 44 43 44 45 46 47 47 46 46 46 45 45 44 43 42 43 45 45 43 42 42 42 42 42 41 41 42 43 42 39 37 35 35 37 39 40 40 40 39 38 37 37 38 39 40 41
41 39 37 35 35 37 38 39 39 39 39 40 42 44 46 47 46 45 44 43 43 43 43 43 43 43 43 43 43 43 43 45 46 47 48 48 49 49 48 47 46 45 44 43 45 46 45 43 44 44 43 44 43 42 43 44 43 42 40 38 37 37 39 39 40 40 40 39 39 38 38 38 39 40
39 38 36 34 35 38 40 41 41 40 39 41 43 45 46 47 47 46 45 45 45 44 44 44 45 45 45 44 44 44 44 45 46 47 48 48 49 49 50 49 48 47 46 45 45 46 46 45 45 45 45 45 45 45 45 45 45 43 42 40 39 39 39 39 39 40 40 40 39 39 38 38 39 39
38 38 37 37 38 40 41 42 42 41 41 42 44 45 46 46 47 47 47 47 46 46 47 47 47 47 46 46 46 45 45 46 46 47 48 48 48 49 50 50 49 48 48 48 47 47 46 46 46 46 46 46 46 46 46 47 47 46 44 41 41 41 40 39 39 40 40 40 39 39 39 39 39 39
38 39 40 41 42 42 42 42 41 42 42 43 44 45 47 48 49 49 48 48 49 49 49 49 49 48 47 47 47 46 46 46 47 48 48 48 48 48 49 50 50 49 49 49 49 49 48 47 47 47 48 48 47 46 47 48 49 49 47 44 42 42 41 41 40 40 40 40 39 39 39 39 39 39
39 40 42 44 44 43 42 41 41 42 43 44 46 47 48 49 49 49 49 49 49 49 49 49 49 49 48 47 47 46 46 46 47 48 48 49 49 49 50 50 51 51 51 51 51 50 50 50 50 50 50 49 49 48 47 48 50 51 50 46 43 43 43 42 42 41 40 40 39 39 39 38 39 39
40 42 44 45 45 44 43 44 44 44 45 46 46 46 47 48 48 48 48 48 49 49 49 49 49 48 48 48 47 47 47 47 47 48 49 50 51 51 52 52 52 53 52 53 53 52 52 53 52 52 52 51 51 46 42 45 51 53 51 48 45 45 45 44 44 43 41 40 39 39 38 38 38 38
40 42 43 44 45 45 46 46 46 46 46 46 46 45 46 47 47 48 49 49 49 49 49 49 49 49 49 48 49 49 49 48 49 49 50 51 51 52 53 54 54 54 54 55 55 54 54 55 54 54 52 51 51 46 40 45 53 53 51 50 49 47 46 45 44 43 41 40 39 38 38 38 37 37
40 40 42 43 45 45 46 46 46 46 46 46 46 46 46 47 48 49 50 51 51 51 51 51 51 51 50 50 50 50 50 49 49 50 50 51 52 52 53 53 54 55 55 56 56 54 54 55 55 55 53 50 49 42 36 43 53 52 49 50 51 49 48 45 43 42 41 40 39 38 38 37 37 36
39 40 41 42 43 43 43 44 44 45 46 47 47 48 49 50 50 51 52 52 53 53 52 52 52 52 52 52 51 50 49 48 48 49 49 50 50 51 51 51 51 52 53 55 55 54 55 55 54 54 53 52 49 42 34 38 48 49 46 48 50 50 48 45 42 40 39 39 38 38 38 37 37 36
37 38 38 39 39 40 42 43 45 46 47 48 49 50 52 53 53 54 54 54 54 54 54 54 53 52 52 51 49 48 46 45 46 46 46 46 47 47 48 47 47 49 50 51 52 52 53 54 54 53 52 52 53 50 43 39 42 46 45 46 48 47 45 43 41 39 38 37 37 37 37 36 35 35
34 35 36 37 39 40 42 44 45 47 48 49 50 51 52 53 54 54 54 54 54 54 54 53 53 52 50 48 46 44 42 41 41 41 41 41 41 42 43 44 45 46 47 49 50 49 49 51 52 52 52 51 52 54 51 43 40 44 48 48 45 43 41 40 39 38 37 37 37 37 36 36 34 33
32 34 35 37 39 40 41 43 44 45 47 48 48 49 49 50 51 51 51 51 51 51 51 50 49 48 46 45 43 41 39 38 37 36 37 37 38 38 39 40 41 41 42 43 43 43 43 43 44 46 49 51 50 52 51 47 44 45 50 49 45 42 39 37 36 37 36 36 36 36 36 36 35 35
32 34 35 36 38 39 40 41 43 44 45 46 47 47 46 46 46 46 46 46 46 46 45 44 44 42 41 40 39 38 37 36 35 34 34 35 36 36 36 37 37 37 37 37 38 39 38 38 38 39 42 46 48 48 48 46 44 45 48 49 45 41 38 36 35 36 35 35 35 35 36 37 37 38
32 33 34 35 36 38 39 40 41 42 43 44 44 44 44 43 42 41 41 41 41 41 40 40 40 39 38 38 37 37 36 36 34 33 33 34 35 35 36 38 39 38 37 37 37 38 38 37 37 36 36 39 44 45 43 42 43 43 46 47 44 41 38 35 34 34 34 34 34 34 34 36 38 39
30 30 32 33 35 37 38 39 41 42 42 43 42 41 40 39 38 37 37 37 37 37 37 38 38 37 37 36 36 35 34 32 31 30 31 33 34 36 37 39 38 37 36 35 34 34 35 34 33 32 31 33 38 40 39 39 41 43 46 45 41 39 38 36 32 31 33 33 32 32 33 34 35 37
27 28 30 32 34 36 38 39 40 41 41 41 39 37 36 35 34 34 33 33 34 34 35 35 36 36 35 34 32 30 29 27 27 29 31 33 34 35 36 36 36 36 35 34 32 32 32 31 29 28 27 29 33 35 34 34 36 40 45 45 39 35 37 37 33 30 30 32 32 31 30 30 31 32
25 28 30 31 33 35 36 38 38 39 38 37 36 34 33 31 31 30 29 30 31 31 32 33 34 34 33 32 30 28 27 26 27 28 30 31 32 32 32 31 31 31 32 34 33 31 30 30 29 27 24 24 27 30 32 32 33 35 40 43 40 35 34 36 35 30 29 31 32 31 29 28 27 26
24 27 29 30 32 34 36 37 37 36 35 34 33 32 30 29 28 27 26 26 27 28 30 31 32 32 31 31 29 28 27 27 26 27 28 28 28 28 27 27 26 26 27 30 31 30 29 29 29 27 24 22 23 27 31 33 35 37 38 41 42 39 34 34 34 31 28 29 31 30 28 26 23 21
23 26 29 31 33 35 36 36 35 33 32 31 30 29 28 27 26 25 24 24 24 26 27 29 29 29 29 28 27 26 25 25 25 26 26 26 26 27 27 27 26 26 26 27 27 29 30 30 28 27 24 23 24 26 28 31 35 38 39 38 39 39 35 33 34 32 28 27 29 29 28 26 23 22
25 28 31 33 34 35 35 34 33 31 29 29 28 27 25 24 23 23 22 22 22 23 25 26 26 25 25 25 24 24 24 25 26 27 27 28 29 29 30 30 29 29 28 27 27 28 30 29 28 26 24 24 24 26 28 30 32 36 38 36 36 36 35 34 34 32 28 27 29 29 28 26 23 22
28 30 32 33 34 35 34 33 32 30 28 27 26 25 24 23 22 22 21 21 22 22 22 22 22 21 20 20 21 22 23 25 27 28 29 30 30 31 31 32 32 32 31 29 27 27 27 27 27 25 24 25 25 26 28 30 29 30 34 35 35 34 33 33 34 32 29 28 29 29 28 26 23 23
29 31 32 33 34 35 34 32 30 29 27 26 25 24 23 22 21 21 21 21 21 20 19 18 17 16 16 17 19 21 23 25 26 27 28 29 30 30 30 30 31 32 32 31 29 26 25 24 24 23 23 25 26 27 29 30 27 26 30 34 36 34 32 33 33 31 27 27 28 27 26 26 25 25
29 31 33 34 35 34 33 31 29 27 26 26 24 22 21 21 21 20 20 19 19 17 16 15 15 14 15 17 20 24 26 27 28 29 29 30 31 31 31 30 30 30 31 31 29 26 23 22 22 22 23 25 27 28 29 30 28 26 27 33 37 36 34 34 33 29 26 26 26 26 26 25 24 24
30 32 33 34 34 34 32 30 28 27 26 26 24 22 21 20 20 19 18 17 17 16 15 13 13 14 16 19 22 24 24 24 25 25 27 29 30 30 30 30 29 27 27 27 25 23 21 20 21 23 25 27 29 29 27 29 30 27 26 31 37 38 36 35 33 29 27 27 27 26 26 25 24 24
30 32 33 34 35 34 32 30 28 27 28 27 25 23 21 20 19 18 17 16 15 13 12 11 12 14 17 20 23 23 22 21 21 21 22 24 25 25 25 25 24 22 21 21 22 21 20 20 21 24 26 28 29 29 28 29 30 27 25 30 37 38 36 35 33 30 28 29 27 26 24 23 22 20
31 32 34 35 35 35 33 31 30 29 30 29 26 23 21 20 18 16 16 15 13 11 10 10 11 14 16 19 21 21 20 19 19 19 19 19 19 19 17 16 16 17 17 18 19 19 19 19 20 23 26 27 29 29 28 28 30 27 24 28 36 38 35 34 34 31 27 26 26 26 24 22 19 16
31 32 34 35 36 36 35 33 32 31 31 30 28 24 21 20 17 15 14 13 11 9 9 11 13 15 16 18 20 20 18 16 16 15 16 15 14 15 14 13 13 14 15 16 17 17 16 18 20 22 25 27 28 27 26 26 28 27 23 26 35 39 36 33 33 31 27 26 26 25 22 20 18 17
Wind_Direction
294 288 284 281 282 279 277 274 270 270 270 269 269 269 270 269 266 264 262 260 261 263 265 266 265 267 268 267 265 261 261 263 264 264 264 262 262 263 261 259 257 257 259 262 264 264 263 262 262 263 263 263 264 263 263 265 265 265 266 267 270 273 274 274 274 278 281 284 286 288 289 290 291 292
308 306 303 298 295 293 291 288 285 282 279 278 276 274 274 274 272 269 264 262 263 264 265 263 261 266 271 273 273 271 268 266 264 262 262 261 261 262 261 260 258 257 257 257 258 261 262 261 261 261 261 261 262 263 264 265 265 264 263 263 265 268 272 273 273 276 280 282 285 287 288 289 289 291
310 309 309 308 304 302 298 295 293 291 289 286 284 282 280 277 275 273 268 264 262 263 265 263 262 265 268 271 274 275 274 274 273 270 269 267 266 265 264 262 261 260 259 259 259 260 260 261 261 260 261 260 260 261 262 263 263 263 262 262 261 264 268 271 271 273 277 280 282 283 285 286 287 288
310 308 307 306 304 303 300 297 294 291 291 289 287 286 285 283 281 278 275 271 267 266 267 267 267 267 268 269 270 271 272 273 274 274 273 271 270 268 266 265 263 262 262 262 262 262 261 262 262 262 262 262 261 260 260 261 261 262 261 261 261 264 266 267 269 271 274 276 278 280 281 282 283 285
313 310 307 305 303 302 301 300 298 294 292 289 288 287 286 286 285 284 283 279 275 273 273 272 271 271 271 271 270 270 271 272 272 273 273 272 271 270 269 268 266 264 264 264 264 264 264 263 264 264 264 264 264 263 262 261 261 261 260 260 261 263 265 265 267 270 273 275 278 278 277 277 279 282
315 313 311 309 308 306 304 303 301 299 297 294 292 290 288 287 287 287 287 286 284 281 280 280 278 277 276 274 273 273 272 272 273 273 274 274 273 272 271 270 270 269 267 266 265 265 266 266 265 265 265 266 267 266 265 264 263 262 261 261 260 261 262 262 264 267 271 275 276 275 273 273 276 278
313 311 309 307 307 308 307 306 304 302 300 298 296 294 292 290 289 288 288 289 288 287 286 286 284 283 281 279 278 277 275 274 273 273 273 274 275 275 274 273 272 272 272 272 270 268 268 269 267 265 264 264 265 265 266 266 266 265 264 263 262 261 261 261 262 265 269 272 273 272 271 270 270 271
309 310 308 306 305 306 306 306 306 304 303 301 299 298 295 293 290 289 288 288 287 287 287 286 286 285 284 282 281 280 279 278 276 274 273 272 273 274 275 275 275 273 273 274 274 273 271 268 266 267 267 266 265 265 265 265 266 266 266 265 265 264 263 263 264 265 267 268 269 268 266 266 266 265
303 305 306 305 305 305 305 304 303 301 301 300 300 299 298 296 294 292 291 290 289 288 287 286 286 285 283 282 281 281 280 279 278 277 275 275 274 273 273 274 275 276 276 275 274 273 271 269 267 268 269 270 269 268 267 266 265 265 265 265 265 265 264 263 263 265 265 263 263 263 262 263 264 264
297 298 300 301 301 300 301 301 299 297 295 294 294 294 293 292 291 291 291 291 290 290 289 288 287 286 284 282 280 280 280 279 278 278 277 276 276 275 274 273 274 275 277 277 276 274 272 271 270 268 268 268 268 268 268 267 266 266 266 266 265 265 263 262 261 262 263 262 261 261 261 260 260 261
294 295 295 296 296 295 296 297 297 295 293 291 290 290 288 287 285 285 286 286 287 288 288 287 286 286 285 284 282 281 280 278 278 278 277 276 276 276 276 275 274 275 275 275 276 276 276 274 272 270 268 267 267 267 267 267 266 266 266 266 266 266 264 263 260 260 261 261 260 260 260 261 260 260
292 294 294 294 294 294 293 294 294 294 294 292 291 291 290 287 285 284 283 282 283 283 283 283 283 283 283 283 283 282 280 279 278 277 277 276 275 276 275 275 276 276 276 275 274 275 276 276 274 272 270 268 268 268 268 268 267 266 266 266 265 265 265 264 262 260 259 259 260 259 259 261 262 261
288 291 292 293 293 292 292 290 289 291 293 292 292 292 292 291 290 288 285 284 283 282 282 282 282 281 280 280 282 282 281 280 279 278 277 276 276 275 274 274 274 275 276 276 275 274 274 275 274 273 271 269 268 268 269 270 269 268 267 266 265 264 263 262 262 261 260 258 259 259 258 259 261 262
287 287 288 289 290 290 289 286 284 285 288 290 290 291 292 293 292 291 289 287 285 284 283 283 283 281 280 280 280 280 280 280 279 278 277 277 276 276 275 275 274 275 275 275 274 273 273 273 274 274 273 270 268 267 267 268 269 269 268 267 266 264 263 261 259 259 259 258 258 258 259 259 261 262
286 286 286 287 288 288 287 284 282 279 280 283 285 286 289 291 292 292 290 289 288 286 284 284 284 283 282 282 281 279 279 278 278 278 277 277 277 277 276 276 276 276 276 275 274 272 272 272 272 272 273 273 272 270 268 267 267 268 269 269 268 266 264 262 259 258 257 258 258 258 259 259 260 262
285 286 287 289 289 289 287 284 282 278 276 277 280 282 286 288 289 289 288 288 288 287 286 285 284 284 284 283 282 280 279 278 278 278 277 277 277 277 277 277 277 277 277 276 275 274 273 272 271 271 271 271 272 273 272 270 268 266 266 267 268 267 265 264 262 260 258 257 257 258 259 259 259 259
286 287 289 290 290 290 289 286 283 279 276 275 276 279 282 284 285 284 284 285 286 286 285 284 284 284 284 283 281 281 280 279 278 278 278 278 278 278 277 277 277 276 276 276 275 275 273 272 271 271 270 269 269 269 271 271 270 268 265 264 264 265 266 266 265 264 261 258 256 257 258 259 259 258
286 287 288 289 289 290 290 288 286 283 280 278 278 280 282 284 285 284 282 282 282 283 282 282 281 281 280 280 280 280 280 279 279 279 278 279 279 278 277 277 277 276 276 275 275 274 273 272 271 270 269 268 266 266 267 268 268 268 267 265 264 265 266 266 266 265 264 261 258 256 256 258 259 258
283 285 287 288 290 290 290 289 287 286 284 283 282 282 283 285 285 285 285 284 283 282 282 281 280 278 277 277 277 278 278 278 278 278 278 279 279 279 278 278 278 277 276 274 273 274 273 272 270 270 270 269 268 266 265 265 265 266 265 265 264 264 265 266 266 265 264 263 261 258 256 256 257 258
282 284 286 288 290 291 290 288 286 286 286 285 283 282 282 283 284 285 286 287 286 285 283 282 280 279 278 277 276 277 277 277 277 277 277 277 278 279 279 279 278 278 277 274 273 272 272 272 271 270 270 269 268 268 267 266 265 264 263 263 263 262 262 263 264 264 263 262 261 259 256 255 255 256
282 284 284 286 289 291 289 286 286 287 288 287 285 284 284 285 285 285 287 288 287 286 284 282 281 280 280 279 278 278 277 277 277 276 276 276 276 277 277 277 276 276 275 275 273 272 271 271 270 270 269 268 267 267 267 267 267 265 264 263 261 260 260 260 260 261 261 260 259 259 257 255 254 254
282 283 283 285 289 291 289 287 287 289 289 288 287 287 287 287 287 288 288 288 287 285 284 282 281 280 279 279 279 278 278 277 276 276 275 275 274 274 274 274 274 273 272 272 272 272 272 271 270 269 268 267 266 265 265 265 266 266 265 263 261 260 260 260 259 259 259 259 259 258 257 255 254 253
282 284 285 288 290 290 289 290 291 291 289 289 289 289 289 288 288 288 288 286 285 284 283 283 282 281 280 280 279 278 277 276 275 275 274 274 273 272 271 271 272 272 271 271 270 270 270 270 269 268 267 266 265 265 265 264 264 264 264 263 262 261 260 260 260 259 259 259 258 258 257 255 254 253
284 287 288 289 291 291 292 293 293 292 291 290 290 290 289 289 289 288 287 286 286 285 284 283 283 283 282 281 279 278 276 275 274 273 272 271 271 271 270 269 269 269 270 270 269 269 269 268 267 267 266 266 266 265 265 263 263 263 263 263 261 260 259 259 259 258 259 260 259 258 257 255 254 252
286 288 289 289 290 292 293 294 293 293 292 292 291 290 290 290 289 289 288 288 287 286 286 285 284 283 281 280 279 278 277 276 274 272 271 269 269 268 268 268 268 268 268 268 268 268 268 268 267 266 265 264 264 263 261 261 262 263 263 262 259 258 258 258 258 257 258 259 259 259 258 256 254 252
287 288 289 289 290 292 292 292 292 292 292 291 291 292 292 292 291 291 290 289 288 286 285 284 283 281 280 279 278 277 277 276 274 273 272 270 269 267 267 267 267 268 268 268 268 268 266 266 266 265 263 261 260 259 258 260 261 261 260 260 259 257 257 256 256 256 256 257 258 258 257 256 254 252
288 289 288 288 289 289 290 291 291 292 293 294 294 295 294 293 292 291 289 288 287 286 284 282 281 280 279 278 278 278 277 276 275 273 272 271 270 269 269 268 267 267 266 267 267 267 266 265 263 262 260 258 255 251 247 251 257 259 258 258 258 257 256 255 254 253 253 253 254 255 256 255 254 253
288 288 287 288 290 291 293 294 295 295 296 296 296 295 294 293 292 290 289 288 287 285 284 283 281 280 279 278 278 278 277 275 274 272 271 270 270 271 271 270 268 267 266 265 265 265 265 264 263 261 259 256 253 249 241 240 249 256 258 258 258 257 256 254 252 250 249 249 251 253 254 254 254 253
288 289 291 292 293 294 294 294 294 294 294 293 292 292 291 290 290 289 288 287 286 285 284 282 281 281 280 280 279 277 275 272 270 269 269 270 270 270 270 270 270 269 267 266 265 264 263 263 262 262 260 257 254 251 243 235 238 249 256 258 258 257 256 252 248 246 245 246 247 249 251 252 252 252
290 292 292 292 291 291 291 291 292 292 292 291 290 290 289 288 288 287 286 286 285 284 283 282 282 281 280 280 278 276 273 269 265 265 266 267 268 268 269 270 271 271 270 270 270 269 268 266 264 261 260 257 255 252 247 238 235 242 251 255 255 255 255 253 247 244 243 243 244 246 248 250 250 248
291 291 291 290 291 292 293 294 294 294 293 293 292 292 291 290 289 287 287 286 285 284 284 283 282 280 279 278 277 275 273 269 266 265 266 266 266 266 267 269 270 271 271 273 274 275 275 275 273 268 262 258 255 253 250 243 238 240 245 249 251 252 252 251 247 242 240 240 242 243 245 247 248 248
290 290 291 293 295 296 297 297 297 297 297 297 297 296 295 293 290 289 288 286 286 285 283 282 281 280 279 277 276 275 273 270 268 267 266 266 266 267 268 269 269 270 271 271 272 272 273 275 278 275 267 259 254 251 248 243 238 237 241 244 246 248 248 248 246 241 238 237 239 241 244 247 248 249
289 292 296 299 300 301 302 303 303 304 303 303 301 299 297 294 292 290 288 286 285 283 281 281 281 280 279 279 278 276 273 270 268 267 266 267 269 270 270 269 268 268 268 267 267 267 268 271 275 274 267 258 251 247 245 239 234 234 236 238 242 246 246 245 245 243 237 235 238 240 244 247 249 251
296 301 304 306 307 308 309 309 309 308 307 305 303 300 298 295 293 291 288 286 283 282 281 282 282 282 282 282 280 277 273 269 267 267 269 271 272 272 271 270 268 266 265 264 265 266 266 268 271 271 266 256 247 243 241 236 231 232 234 233 234 240 244 242 242 243 237 233 235 239 242 246 249 251
306 309 310 312 314 314 314 313 313 312 310 309 306 303 300 298 296 294 291 287 284 283 283 283 283 283 282 282 280 278 276 273 272 271 272 272 272 272 271 271 270 268 266 266 267 267 266 265 265 268 267 257 245 239 234 227 223 227 231 230 226 230 239 241 240 239 237 233 234 237 242 246 249 251
311 314 317 320 321 321 320 320 318 316 314 311 307 304 302 300 298 296 292 288 285 285 284 284 284 284 283 281 279 277 275 274 273 271 270 269 269 270 270 271 272 273 272 271 268 264 262 262 261 263 263 255 242 235 231 225 220 221 224 225 223 224 231 238 238 235 234 234 233 235 242 246 246 247
319 324 327 329 329 328 326 324 321 318 315 311 309 306 304 301 299 296 292 289 287 287 286 286 286 286 285 282 279 276 272 270 268 266 266 266 267 268 270 272 273 274 275 276 270 261 259 260 260 258 257 251 240 233 230 227 223 220 221 222 222 221 224 232 237 233 230 232 233 233 237 241 240 238
332 336 336 335 333 331 329 327 324 320 318 315 312 309 306 303 301 298 295 293 291 289 289 288 287 285 283 281 278 275 271 268 267 267 266 266 266 267 268 270 271 271 272 273 270 263 258 258 257 254 250 245 236 228 226 227 226 223 221 219 219 219 221 228 234 232 226 228 230 231 233 237 238 238
341 340 338 337 335 333 332 330 327 323 321 319 316 313 308 304 302 300 298 295 293 290 288 286 284 282 281 280 280 278 276 275 274 273 271 270 268 267 266 266 266 266 266 266 268 266 261 257 255 249 242 237 228 219 223 230 231 227 221 216 214 217 218 224 231 230 225 224 227 230 233 234 232 234
343 341 340 339 338 337 335 333 329 326 325 324 322 318 313 309 307 304 301 298 295 291 288 287 287 287 287 289 290 289 287 286 284 282 280 278 276 274 273 271 267 263 260 259 261 263 263 260 255 245 236 230 222 215 220 227 230 227 220 213 211 212 215 222 228 228 225 224 224 226 232 235 233 236
344 343 343 342 341 339 337 335 332 330 329 329 327 322 317 314 312 309 306 301 296 291 289 290 292 293 295 297 296 293 291 288 284 281 278 278 278 277 275 273 270 264 257 254 255 258 262 259 250 238 229 223 218 215 216 220 224 226 220 211 207 208 213 221 225 222 221 226 226 223 225 232 236 240
345 346 346 345 344 342 340 337 335 334 335 335 332 327 322 318 315 311 306 299 291 287 286 289 293 297 302 304 304 302 299 295 289 283 278 276 276 275 272 270 268 262 254 249 249 253 256 254 243 232 224 218 214 212 212 214 218 223 219 210 205 206 212 219 219 214 217 225 226 222 221 226 234 241
347 348 348 347 347 346 343 341 340 341 341 339 336 331 327 323 319 314 306 295 286 281 283 290 299 307 312 315 314 310 305 299 293 290 286 281 275 272 269 266 260 253 247 244 244 247 250 249 239 229 221 215 211 209 209 212 215 217 216 210 204 204 210 215 212 210 218 226 226 222 221 224 232 241
349 350 350 350 349 349 348 347 347 346 345 342 338 335 331 327 323 317 308 295 285 281 286 295 303 309 314 319 321 316 307 298 294 296 295 287 275 266 263 257 247 241 240 240 241 244 246 243 234 225 217 212 210 209 209 212 214 214 214 210 204 203 209 212 208 208 216 222 222 222 222 222 226 230
350 352 353 352 351 351 351 350 349 348 346 343 340 338 336 332 328 321 310 297 285 283 290 295 298 302 309 316 322 324 316 305 302 308 310 300 276 257 252 251 246 244 244 243 244 244 239 229 222 215 210 208 209 210 212 213 213 213 214 210 204 203 207 209 208 211 217 218 217 218 218 217 219 220
Height
3116 3116 3116 3116 3116 3116 3116 3116 3116 3117 3117 3117 3117 3118 3118 3118 3118 3119 3119 3120 3120 3120 3120 3121 3121 3119 3119 3119 3120 3121 3121 3121 3122 3122 3122 3123 3123 3123 3124 3124 3124 3125 3125 3125 3125 3125 3125 3126 3126 3127 3127 3128 3129 3129 3130 3132 3132 3133 3134 3134 3134 3134 3135 3136 3136 3136 3136 3135 3135 3135 3135 3134 3134 3133
3115 3115 3115 3116 3116 3116 3116 3116 3116 3116 3116 3116 3116 3116 3116 3117 3117 3117 3118 3118 3118 3118 3118 3119 3119 3118 3118 3117 3117 3118 3118 3118 3119 3119 3119 3120 3119 3120 3120 3120 3121 3121 3121 3121 3121 3121 3121 3122 3122 3123 3123 3124 3125 3125 3126 3128 3129 3129 3130 3131 3131 3131 3131 3132 3133 3133 3132 3132 3132 3132 3132 3132 3131 3131
3114 3114 3114 3115 3115 3115 3115 3115 3115 3115 3115 3115 3115 3115 3115 3115 3115 3115 3116 3116 3117 3116 3116 3117 3117 3116 3116 3115 3115 3115 3115 3115 3116 3115 3116 3116 3116 3116 3117 3117 3117 3117 3116 3117 3117 3118 3118 3118 3119 3119 3119 3120 3120 3121 3122 3123 3124 3125 3126 3127 3128 3128 3128 3129 3129 3130 3129 3129 3129 3129 3129 3129 3129 3129
3113 3113 3113 3113 3113 3113 3113 3114 3114 3114 3114 3114 3114 3114 3114 3114 3113 3113 3113 3114 3114 3114 3114 3114 3115 3114 3114 3114 3113 3113 3112 3113 3113 3112 3112 3113 3113 3113 3113 3113 3113 3113 3113 3113 3114 3114 3114 3115 3115 3115 3115 3116 3116 3117 3118 3119 3120 3121 3122 3123 3124 3125 3125 3126 3126 3126 3126 3126 3126 3127 3126 3126 3126 3126
3111 3111 3111 3111 3112 3112 3112 3112 3112 3112 3112 3112 3112 3112 3112 3112 3111 3111 3111 3110 3111 3111 3111 3111 3111 3111 3111 3111 3111 3110 3110 3110 3110 3110 3109 3110 3110 3110 3110 3110 3110 3110 3110 3110 3111 3111 3111 3111 3112 3112 3112 3112 3112 3113 3114 3114 3115 3117 3118 3119 3120 3121 3122 3123 3123 3123 3123 3123 3123 3123 3123 3123 3123 3123
3111 3110 3110 3109 3110 3110 3110 3110 3109 3109 3110 3110 3110 3110 3110 3109 3109 3108 3108 3107 3107 3108 3108 3107 3107 3107 3107 3107 3107 3107 3107 3108 3107 3107 3106 3106 3106 3106 3106 3106 3106 3106 3106 3107 3107 3107 3107 3108 3108 3108 3108 3108 3109 3109 3110 3110 3111 3112 3113 3114 3116 3117 3118 3119 3119 3119 3119 3119 3120 3120 3120 3120 3120 3120
3109 3109 3109 3108 3108 3108 3108 3108 3107 3107 3107 3107 3107 3107 3107 3107 3107 3106 3106 3105 3104 3104 3104 3104 3104 3104 3104 3104 3104 3104 3104 3104 3104 3104 3103 3103 3102 3102 3102 3102 3102 3101 3102 3103 3103 3103 3104 3104 3104 3104 3104 3105 3105 3105 3106 3106 3107 3108 3108 3110 3111 3112 3113 3114 3115 3115 3115 3116 3116 3116 3116 3117 3117 3116
3107 3107 3107 3106 3106 3106 3106 3106 3105 3105 3104 3104 3104 3104 3103 3103 3103 3103 3103 3102 3102 3101 3101 3101 3101 3101 3101 3101 3100 3100 3100 3100 3100 3100 3100 3100 3099 3099 3099 3099 3098 3097 3098 3099 3099 3099 3100 3100 3100 3100 3100 3101 3101 3102 3102 3102 3103 3103 3104 3105 3106 3107 3108 3109 3109 3110 3111 3111 3111 3112 3112 3113 3114 3113
3105 3104 3104 3104 3104 3104 3103 3103 3103 3103 3102 3102 3101 3101 3100 3100 3099 3099 3099 3098 3098 3098 3098 3098 3098 3098 3098 3097 3097 3097 3097 3096 3096 3096 3096 3095 3096 3096 3096 3096 3095 3094 3095 3096 3095 3095 3096 3096 3096 3097 3097 3097 3097 3098 3098 3098 3098 3099 3099 3100 3101 3102 3103 3104 3105 3105 3105 3107 3107 3108 3108 3109 3110 3110
3102 3102 3102 3101 3101 3101 3101 3101 3100 3100 3100 3099 3099 3098 3098 3097 3096 3096 3096 3095 3094 3093 3093 3093 3093 3093 3094 3094 3094 3093 3093 3092 3092 3092 3091 3091 3091 3091 3092 3092 3092 3091 3091 3091 3091 3091 3091 3092 3092 3093 3093 3093 3093 3093 3093 3093 3094 3094 3095 3096 3096 3097 3098 3099 3100 3101 3101 3102 3103 3104 3104 3104 3105 3106
3100 3100 3099 3099 3098 3098 3098 3097 3097 3097 3096 3096 3096 3095 3094 3094 3094 3093 3093 3092 3091 3090 3089 3089 3088 3089 3089 3089 3089 3090 3089 3088 3088 3088 3087 3087 3087 3087 3087 3087 3088 3088 3087 3087 3087 3086 3086 3087 3088 3088 3089 3088 3088 3088 3088 3089 3089 3090 3090 3091 3092 3093 3093 3095 3096 3096 3096 3097 3098 3099 3100 3100 3101 3102
3096 3096 3096 3096 3095 3095 3095 3094 3093 3093 3092 3092 3092 3091 3090 3090 3089 3089 3089 3088 3088 3087 3086 3085 3085 3084 3084 3084 3084 3085 3084 3084 3084 3084 3083 3082 3083 3083 3083 3083 3083 3083 3083 3083 3083 3083 3082 3082 3082 3083 3084 3084 3084 3083 3083 3084 3085 3085 3086 3087 3087 3088 3089 3090 3091 3092 3092 3093 3094 3094 3095 3096 3097 3097
3093 3093 3092 3092 3092 3091 3091 3091 3090 3089 3089 3088 3087 3087 3086 3085 3085 3084 3084 3084 3083 3083 3082 3082 3081 3081 3080 3079 3079 3079 3079 3078 3078 3078 3078 3078 3078 3078 3078 3079 3079 3079 3078 3078 3078 3079 3078 3077 3077 3078 3079 3079 3079 3079 3079 3079 3080 3080 3081 3082 3082 3083 3084 3085 3086 3087 3088 3088 3089 3090 3090 3091 3092 3093
3089 3089 3088 3088 3087 3087 3087 3087 3086 3086 3085 3084 3083 3083 3082 3081 3080 3079 3079 3078 3078 3077 3077 3077 3076 3076 3076 3076 3076 3074 3074 3073 3072 3072 3072 3072 3073 3073 3073 3074 3075 3075 3074 3073 3073 3074 3074 3073 3073 3073 3073 3073 3074 3074 3074 3075 3075 3076 3076 3076 3077 3078 3079 3080 3081 3081 3082 3083 3084 3085 3086 3086 3087 3088
3084 3084 3083 3083 3082 3082 3082 3082 3081 3081 3081 3080 3080 3079 3078 3077 3076 3075 3074 3073 3073 3072 3071 3071 3071 3070 3070 3071 3071 3070 3069 3068 3066 3066 3067 3066 3066 3067 3067 3068 3069 3070 3069 3068 3068 3068 3069 3069 3068 3068 3068 3068 3068 3068 3069 3070 3071 3071 3071 3071 3072 3073 3073 3074 3075 3076 3077 3078 3079 3080 3081 3082 3082 3083
3080 3079 3078 3078 3077 3077 3076 3076 3076 3075 3075 3075 3074 3074 3074 3073 3072 3071 3070 3069 3068 3067 3066 3065 3065 3065 3064 3064 3065 3065 3064 3063 3062 3061 3061 3061 3060 3061 3061 3061 3063 3064 3064 3062 3062 3063 3064 3064 3063 3063 3063 3063 3063 3062 3062 3064 3065 3066 3067 3067 3067 3067 3068 3068 3069 3071 3072 3073 3074 3075 3075 3076 3077 3078
3076 3075 3074 3073 3072 3071 3071 3071 3070 3069 3069 3068 3068 3068 3068 3067 3067 3067 3066 3065 3064 3063 3061 3060 3060 3060 3059 3058 3058 3058 3058 3057 3056 3055 3055 3055 3055 3054 3055 3055 3056 3057 3058 3057 3056 3056 3058 3058 3058 3058 3058 3058 3058 3058 3057 3057 3058 3059 3061 3062 3062 3062 3062 3063 3064 3065 3066 3068 3069 3070 3071 3071 3072 3073
3071 3070 3069 3068 3068 3067 3066 3065 3064 3064 3063 3063 3062 3061 3061 3060 3060 3060 3060 3060 3059 3058 3057 3056 3055 3054 3054 3052 3052 3052 3052 3051 3050 3049 3048 3048 3048 3048 3048 3049 3049 3051 3052 3051 3049 3049 3051 3052 3052 3051 3052 3052 3053 3053 3052 3052 3052 3053 3055 3056 3057 3057 3057 3057 3058 3059 3061 3062 3063 3064 3065 3066 3067 3068
3066 3065 3065 3064 3064 3063 3062 3060 3059 3059 3058 3058 3057 3055 3054 3054 3053 3053 3053 3052 3052 3052 3051 3050 3049 3048 3047 3047 3046 3046 3046 3045 3044 3043 3042 3042 3041 3041 3041 3042 3043 3044 3044 3045 3043 3042 3044 3046 3045 3045 3046 3046 3046 3047 3047 3046 3046 3048 3049 3050 3051 3052 3052 3052 3053 3054 3055 3056 3057 3059 3060 3061 3062 3062
3061 3061 3060 3060 3060 3058 3057 3055 3054 3054 3054 3052 3051 3050 3049 3048 3047 3047 3046 3046 3045 3045 3044 3043 3042 3041 3040 3040 3040 3040 3039 3038 3038 3037 3036 3035 3035 3034 3034 3035 3036 3036 3036 3037 3037 3036 3037 3038 3038 3039 3040 3039 3040 3040 3040 3039 3040 3041 3043 3045 3045 3046 3046 3047 3047 3048 3049 3050 3052 3053 3054 3055 3056 3057
3057 3056 3056 3056 3055 3054 3052 3050 3049 3049 3048 3047 3045 3043 3043 3042 3041 3040 3040 3039 3038 3037 3036 3035 3034 3034 3033 3033 3033 3033 3032 3031 3031 3030 3029 3029 3029 3028 3027 3027 3028 3029 3029 3029 3029 3029 3030 3031 3031 3032 3033 3033 3033 3034 3032 3032 3033 3034 3036 3039 3039 3040 3040 3041 3042 3042 3043 3045 3046 3047 3048 3049 3051 3052
3052 3052 3051 3051 3050 3048 3046 3045 3044 3044 3042 3041 3039 3037 3036 3035 3034 3033 3033 3032 3031 3029 3028 3027 3027 3027 3026 3026 3026 3025 3025 3024 3023 3022 3022 3023 3022 3021 3021 3020 3020 3021 3022 3022 3022 3022 3023 3023 3024 3025 3026 3026 3027 3027 3026 3026 3026 3027 3029 3032 3033 3033 3034 3035 3036 3037 3038 3039 3040 3041 3042 3043 3045 3046
3048 3047 3046 3045 3044 3042 3041 3040 3039 3038 3036 3035 3033 3031 3030 3028 3027 3026 3025 3024 3023 3022 3021 3020 3019 3019 3018 3018 3018 3018 3017 3017 3016 3015 3014 3014 3014 3014 3014 3013 3013 3013 3014 3015 3015 3016 3016 3016 3017 3018 3019 3018 3020 3021 3019 3019 3020 3019 3021 3025 3027 3027 3028 3029 3030 3031 3032 3033 3034 3035 3036 3038 3039 3040
3043 3042 3041 3039 3037 3036 3035 3034 3033 3032 3030 3029 3027 3025 3023 3021 3020 3019 3017 3016 3014 3013 3013 3012 3012 3011 3010 3010 3009 3009 3009 3008 3008 3007 3007 3006 3005 3005 3006 3006 3006 3006 3007 3007 3007 3008 3009 3009 3010 3011 3011 3011 3013 3014 3013 3012 3012 3012 3014 3018 3021 3021 3022 3023 3024 3025 3027 3028 3029 3030 3031 3032 3033 3035
3039 3038 3036 3034 3032 3030 3029 3028 3026 3025 3023 3022 3020 3019 3017 3015 3013 3011 3009 3008 3007 3005 3004 3004 3003 3003 3002 3001 3001 3000 3000 3000 2999 2999 2998 2998 2997 2997 2997 2997 2997 2999 2999 2999 2999 3001 3001 3001 3002 3003 3004 3004 3006 3007 3006 3005 3005 3006 3008 3011 3013 3015 3016 3016 3017 3019 3021 3022 3024 3025 3026 3027 3028 3029
3035 3034 3032 3029 3027 3026 3024 3022 3020 3018 3017 3015 3014 3012 3010 3008 3006 3004 3002 3000 2999 2998 2997 2996 2995 2994 2993 2993 2992 2992 2991 2991 2990 2990 2989 2989 2989 2989 2989 2989 2990 2991 2991 2990 2990 2992 2993 2993 2993 2994 2995 2997 2998 3000 3000 2998 2998 3000 3001 3003 3005 3007 3009 3010 3011 3013 3015 3016 3018 3019 3020 3021 3023 3024
3031 3029 3027 3025 3023 3021 3019 3017 3015 3013 3011 3009 3006 3005 3003 3000 2998 2996 2994 2992 2990 2989 2988 2987 2986 2985 2985 2984 2984 2983 2983 2982 2982 2981 2980 2980 2980 2980 2981 2982 2982 2983 2983 2982 2982 2983 2984 2985 2986 2986 2987 2989 2990 2992 2993 2992 2991 2993 2995 2996 2998 3000 3002 3004 3005 3007 3009 3011 3013 3014 3015 3016 3017 3019
3026 3024 3023 3020 3018 3016 3014 3012 3009 3007 3004 3002 2999 2997 2994 2992 2990 2988 2986 2984 2982 2980 2979 2978 2977 2977 2976 2976 2975 2975 2975 2974 2973 2973 2972 2972 2972 2972 2972 2973 2974 2975 2975 2974 2974 2975 2976 2976 2977 2978 2979 2980 2981 2983 2985 2985 2986 2987 2988 2989 2992 2993 2995 2997 2999 3001 3004 3005 3007 3009 3010 3011 3013 3014
3021 3020 3018 3016 3014 3011 3009 3007 3004 3001 2999 2996 2993 2991 2988 2985 2982 2980 2977 2975 2973 2972 2970 2969 2968 2968 2967 2967 2967 2967 2967 2967 2966 2966 2965 2965 2965 2965 2965 2965 2965 2966 2966 2966 2966 2968 2968 2969 2970 2970 2971 2973 2974 2975 2977 2980 2982 2982 2982 2983 2986 2988 2989 2992 2994 2996 2998 3000 3002 3004 3005 3006 3008 3010
3017 3016 3014 3012 3009 3007 3005 3002 2999 2996 2993 2990 2987 2985 2982 2979 2976 2973 2970 2968 2965 2963 2962 2961 2960 2960 2960 2959 2959 2959 2960 2960 2960 2960 2960 2959 2959 2959 2958 2959 2958 2958 2959 2959 2959 2960 2961 2962 2963 2963 2963 2965 2966 2967 2970 2974 2976 2977 2977 2977 2979 2982 2984 2987 2989 2991 2993 2995 2997 2999 3000 3002 3004 3005
3014 3012 3010 3007 3005 3002 2999 2996 2993 2990 2987 2983 2980 2977 2975 2972 2969 2966 2963 2960 2958 2956 2955 2954 2953 2953 2952 2952 2952 2952 2952 2952 2953 2954 2954 2953 2953 2953 2953 2953 2953 2953 2954 2954 2954 2954 2954 2955 2956 2956 2956 2956 2957 2960 2963 2968 2970 2972 2971 2971 2974 2977 2979 2982 2984 2986 2988 2990 2992 2994 2996 2998 2999 3000
3010 3008 3006 3003 3000 2997 2994 2991 2987 2983 2980 2976 2973 2970 2967 2964 2961 2959 2956 2954 2952 2950 2949 2948 2947 2947 2946 2946 2946 2946 2946 2946 2947 2947 2947 2947 2947 2947 2947 2946 2946 2948 2949 2949 2949 2949 2949 2949 2949 2949 2949 2949 2950 2952 2957 2961 2964 2966 2966 2966 2969 2972 2974 2977 2980 2982 2984 2986 2988 2990 2992 2993 2995 2996
3007 3004 3001 2998 2995 2992 2988 2984 2980 2976 2973 2969 2966 2963 2960 2957 2955 2953 2950 2948 2946 2945 2943 2942 2941 2941 2941 2940 2940 2940 2940 2940 2941 2941 2941 2941 2941 2941 2940 2940 2941 2942 2942 2943 2943 2944 2943 2944 2944 2943 2943 2943 2943 2946 2950 2954 2958 2961 2960 2961 2965 2968 2970 2973 2976 2978 2980 2982 2984 2986 2988 2989 2991 2992
3003 3000 2997 2994 2990 2986 2982 2978 2974 2970 2966 2962 2959 2956 2954 2951 2949 2947 2945 2943 2941 2939 2938 2937 2936 2935 2935 2935 2935 2934 2934 2935 2936 2936 2936 2935 2935 2935 2934 2934 2935 2936 2936 2936 2937 2938 2938 2938 2938 2938 2937 2937 2938 2940 2944 2948 2953 2955 2955 2956 2961 2965 2966 2969 2972 2974 2976 2979 2981 2983 2984 2986 2987 2989
2999 2996 2992 2989 2985 2981 2977 2973 2968 2964 2960 2956 2953 2950 2948 2946 2943 2941 2940 2938 2936 2934 2933 2932 2931 2930 2930 2929 2929 2929 2929 2930 2931 2931 2931 2930 2930 2930 2930 2929 2930 2930 2930 2930 2931 2932 2932 2932 2933 2932 2932 2933 2933 2935 2938 2942 2947 2949 2950 2952 2957 2961 2963 2965 2969 2971 2973 2975 2977 2979 2981 2983 2985 2986
2995 2992 2989 2985 2981 2976 2972 2967 2962 2958 2954 2951 2948 2945 2943 2941 2939 2937 2935 2933 2932 2930 2929 2927 2927 2926 2925 2925 2925 2925 2925 2925 2926 2926 2926 2926 2925 2925 2925 2924 2925 2925 2925 2924 2925 2927 2927 2927 2928 2928 2929 2929 2930 2931 2934 2937 2941 2944 2945 2948 2953 2957 2960 2962 2965 2967 2970 2972 2974 2977 2978 2980 2982 2984
2992 2988 2984 2980 2975 2971 2966 2962 2958 2954 2951 2947 2944 2942 2939 2937 2935 2933 2932 2930 2928 2926 2925 2924 2923 2922 2921 2921 2920 2920 2920 2920 2921 2921 2921 2921 2921 2920 2920 2920 2920 2920 2920 2920 2921 2921 2922 2923 2924 2925 2926 2926 2927 2928 2930 2933 2936 2938 2941 2945 2949 2953 2957 2960 2961 2964 2967 2969 2971 2974 2976 2977 2979 2981
2987 2983 2979 2975 2971 2967 2962 2958 2954 2950 2947 2944 2941 2938 2936 2934 2932 2930 2928 2926 2925 2923 2922 2921 2920 2919 2918 2917 2916 2916 2916 2916 2916 2916 2916 2916 2916 2916 2916 2916 2916 2916 2916 2916 2916 2917 2917 2918 2919 2921 2922 2923 2924 2925 2927 2930 2932 2935 2938 2942 2946 2949 2953 2956 2958 2961 2964 2966 2968 2970 2972 2975 2977 2979
2983 2979 2976 2972 2968 2964 2959 2954 2950 2947 2944 2941 2938 2935 2933 2931 2929 2927 2925 2923 2922 2920 2919 2918 2917 2916 2915 2914 2914 2913 2913 2913 2912 2912 2912 2911 2911 2911 2911 2911 2911 2911 2912 2912 2912 2913 2913 2914 2915 2917 2919 2920 2921 2923 2925 2927 2929 2932 2936 2939 2943 2947 2951 2954 2956 2958 2960 2963 2965 2967 2970 2972 2974 2975
2980 2977 2974 2970 2965 2960 2956 2952 2948 2944 2941 2938 2935 2932 2930 2927 2925 2923 2921 2920 2918 2917 2916 2915 2915 2914 2913 2912 2911 2910 2909 2909 2908 2907 2907 2906 2906 2906 2906 2906 2906 2906 2907 2907 2908 2909 2909 2911 2912 2914 2915 2917 2918 2920 2922 2924 2926 2929 2932 2936 2940 2944 2948 2951 2953 2955 2958 2960 2963 2965 2967 2969 2971 2972
2978 2975 2971 2967 2962 2958 2953 2949 2945 2942 2938 2935 2932 2929 2927 2925 2922 2920 2918 2917 2916 2915 2914 2913 2912 2912 2911 2910 2908 2907 2906 2905 2903 2903 2902 2901 2901 2901 2901 2901 2901 2901 2902 2903 2904 2905 2906 2908 2909 2910 2911 2913 2915 2917 2919 2921 2924 2926 2929 2933 2937 2941 2945 2947 2950 2953 2956 2958 2960 2963 2965 2967 2968 2969
2976 2973 2969 2965 2960 2956 2951 2947 2943 2939 2936 2933 2930 2927 2924 2922 2920 2918 2916 2915 2914 2913 2912 2911 2910 2909 2908 2907 2905 2903 2902 2900 2899 2898 2897 2897 2896 2896 2896 2896 2896 2896 2897 2898 2900 2902 2903 2904 2905 2906 2907 2909 2911 2914 2916 2918 2921 2924 2927 2930 2934 2938 2941 2945 2948 2951 2954 2955 2957 2960 2962 2964 2966 2968
2974 2971 2967 2963 2958 2954 2949 2945 2941 2937 2934 2930 2928 2925 2922 2920 2918 2916 2914 2913 2912 2911 2910 2909 2908 2907 2906 2904 2903 2900 2899 2897 2896 2895 2894 2893 2892 2891 2891 2891 2892 2892 2893 2895 2896 2898 2899 2900 2901 2902 2904 2905 2908 2911 2913 2916 2919 2922 2924 2927 2931 2935 2938 2942 2945 2948 2951 2953 2955 2957 2960 2962 2964 2966
2972 2969 2965 2960 2956 2952 2947 2943 2939 2935 2932 2928 2926 2923 2920 2917 2915 2913 2912 2911 2910 2909 2908 2907 2907 2906 2904 2903 2900 2898 2896 2895 2894 2892 2891 2889 2888 2888 2888 2888 2889 2889 2890 2892 2893 2894 2896 2897 2898 2900 2901 2903 2906 2909 2911 2914 2917 2920 2923 2925 2929 2933 2937 2940 2943 2946 2949 2951 2953 2956 2958 2960 2961 2962
2971 2967 2963 2959 2954 2950 2945 2941 2937 2933 2930 2927 2924 2921 2918 2916 2913 2912 2910 2909 2908 2907 2906 2906 2905 2904 2903 2901 2898 2896 2894 2893 2891 2890 2888 2886 2885 2885 2886 2886 2887 2887 2888 2889 2891 2892 2893 2894 2896 2897 2900 2902 2905 2907 2910 2913 2916 2919 2921 2924 2927 2931 2935 2938 2942 2945 2947 2949 2951 2954 2956 2957 2958 2960